Total_Precipitation_Accumulation
2.66 2.75 2.70 2.79 3.02 3.01 3.15 3.41 3.53 3.53 3.53 3.65 3.74 3.77 3.68 3.53 3.23 2.95 2.78 2.84 2.91 3.05 3.45 3.44 3.94 3.98 4.17 4.12 4.11 4.37 4.44 4.21 4.37 4.55 4.23 3.42 2.82 2.81 2.73 2.79 3.02 2.94 3.06
2.80 2.98 3.01 2.91 2.98 3.04 3.16 3.46 3.61 3.73 3.71 3.98 4.26 4.25 4.17 3.79 3.53 3.23 3.12 3.02 3.15 3.16 3.28 3.88 4.09 4.23 4.40 4.26 4.21 4.36 4.33 3.92 4.28 4.71 4.80 4.03 3.56 3.01 2.32 2.57 2.73 2.94 3.43
2.28 2.82 3.11 3.18 2.92 2.85 3.00 3.23 3.46 3.66 3.79 4.04 4.27 4.22 4.34 4.08 3.84 3.61 3.46 3.14 3.05 3.04 3.28 3.68 4.05 4.19 4.02 4.18 4.21 4.19 4.26 4.11 4.08 4.33 4.83 4.35 3.83 3.28 2.60 2.52 2.76 3.07 3.40
2.00 2.46 2.77 2.71 2.65 2.65 2.68 2.98 3.27 3.44 3.61 3.87 3.94 3.91 3.89 3.82 3.74 3.63 3.26 3.07 2.92 2.90 3.00 3.23 3.57 3.84 3.81 3.98 3.73 3.86 4.05 4.21 4.06 4.13 4.19 4.06 3.81 3.63 3.16 2.73 2.64 2.91 3.10
1.75 2.11 2.36 2.37 2.30 2.31 2.56 2.98 3.23 3.33 3.34 3.42 3.45 3.64 3.53 3.62 3.65 3.47 3.29 3.21 3.12 2.94 2.78 2.99 3.40 3.60 3.61 3.50 3.43 3.67 3.74 3.74 3.76 3.95 3.92 3.97 3.90 3.57 3.49 3.20 3.00 2.74 2.44
1.51 1.86 2.18 2.35 2.33 2.39 2.69 3.01 3.18 3.25 3.20 3.13 3.14 3.30 3.38 3.58 3.58 3.37 3.29 3.05 2.89 2.75 2.69 2.77 3.20 3.34 3.33 3.35 3.34 3.38 3.41 3.48 3.52 3.59 3.65 3.87 3.86 3.77 3.82 3.39 3.06 2.85 2.17
1.60 1.84 2.10 2.23 2.36 2.49 2.55 2.74 2.95 3.06 2.96 2.84 2.85 2.93 3.11 3.25 3.13 3.01 2.98 2.80 2.54 2.41 2.53 2.53 2.74 2.83 2.94 3.04 3.24 3.29 3.23 3.28 3.36 3.36 3.32 3.43 3.47 3.64 3.76 3.60 3.16 2.88 2.30
1.87 2.02 2.14 2.24 2.28 2.36 2.40 2.40 2.51 2.59 2.51 2.50 2.59 2.67 2.71 2.66 2.56 2.71 2.60 2.48 2.28 2.19 2.31 2.39 2.40 2.36 2.40 2.53 3.01 3.09 3.12 3.18 3.14 2.94 3.22 3.14 2.97 3.20 3.36 3.65 3.69 3.13 2.68
1.54 1.86 2.00 2.01 2.05 1.98 1.90 1.91 1.98 1.99 1.98 1.98 2.11 2.12 2.13 2.11 2.15 2.27 2.21 2.11 2.08 1.98 2.01 2.05 2.19 2.15 2.08 2.16 2.41 2.58 2.77 2.92 2.85 2.86 3.01 2.85 2.72 2.76 2.88 3.25 3.57 3.59 3.18
1.26 1.35 1.58 1.74 1.78 1.76 1.73 1.74 1.72 1.78 1.82 1.79 1.79 1.73 1.77 1.77 1.82 1.82 1.72 1.76 1.80 1.81 1.82 1.89 1.94 1.95 1.96 2.04 2.25 2.30 2.54 2.68 2.70 2.71 2.73 2.73 2.64 2.73 2.69 2.84 3.14 3.42 3.54
0.97 1.05 1.25 1.55 1.68 1.65 1.58 1.62 1.64 1.69 1.75 1.76 1.74 1.66 1.62 1.70 1.71 1.66 1.62 1.67 1.68 1.64 1.66 1.69 1.71 1.66 1.73 1.95 2.06 2.03 2.24 2.36 2.45 2.38 2.36 2.44 2.65 2.77 2.59 2.64 2.79 3.11 3.50
0.83 0.91 1.06 1.37 1.49 1.41 1.38 1.40 1.45 1.49 1.54 1.61 1.56 1.51 1.57 1.65 1.61 1.53 1.57 1.70 1.69 1.63 1.68 1.81 1.83 1.67 1.72 1.90 1.82 1.71 1.93 2.20 2.27 2.37 2.53 2.49 2.69 2.78 2.64 2.69 2.80 3.10 3.42
0.81 0.86 0.97 1.16 1.32 1.32 1.36 1.39 1.41 1.40 1.47 1.53 1.53 1.51 1.45 1.51 1.53 1.55 1.54 1.54 1.55 1.62 1.66 1.77 1.83 1.81 1.84 1.83 1.74 1.73 1.77 1.90 2.04 2.22 2.45 2.55 2.84 2.86 2.88 2.81 2.83 3.04 3.23
0.84 0.87 0.95 1.11 1.24 1.33 1.48 1.55 1.55 1.48 1.52 1.48 1.41 1.37 1.31 1.35 1.42 1.46 1.42 1.40 1.47 1.56 1.56 1.57 1.69 1.81 1.87 1.83 1.80 1.85 1.86 1.87 1.91 1.94 1.92 1.92 2.14 2.37 2.73 2.73 2.74 2.87 3.12
0.82 0.86 0.96 1.07 1.15 1.29 1.46 1.51 1.54 1.53 1.57 1.55 1.44 1.34 1.40 1.49 1.44 1.34 1.39 1.42 1.44 1.48 1.55 1.53 1.59 1.68 1.68 1.64 1.75 1.78 1.78 1.91 1.88 1.80 1.70 1.60 1.67 1.77 1.89 1.81 2.13 2.43 2.63
0.74 0.80 0.95 1.21 1.15 1.23 1.34 1.49 1.58 1.63 1.67 1.66 1.55 1.51 1.55 1.51 1.43 1.33 1.39 1.46 1.47 1.49 1.52 1.54 1.62 1.64 1.49 1.72 1.84 1.81 1.77 1.73 1.71 1.69 1.64 1.58 1.51 1.37 1.36 1.40 1.58 1.85 2.11
0.69 0.74 0.86 1.04 1.23 1.36 1.42 1.50 1.56 1.58 1.66 1.68 1.70 1.82 1.84 1.76 1.62 1.49 1.47 1.49 1.56 1.63 1.65 1.68 1.69 1.57 1.64 1.81 1.79 1.79 1.73 1.70 1.60 1.57 1.59 1.39 1.28 1.33 1.20 1.33 1.41 1.36 1.38
0.79 0.89 0.94 0.93 0.93 1.09 1.34 1.53 1.65 1.63 1.68 1.80 1.79 1.85 1.86 1.74 1.68 1.65 1.60 1.68 1.76 1.71 1.68 1.74 1.79 1.80 1.74 1.76 1.57 1.61 1.54 1.55 1.54 1.53 1.52 1.50 1.43 1.39 1.44 1.41 1.35 1.23 1.14
0.88 1.01 0.99 0.94 0.94 1.00 1.18 1.45 1.57 1.63 1.70 1.73 1.75 1.75 1.79 1.74 1.74 1.75 1.81 1.82 1.83 1.70 1.60 1.58 1.67 1.75 1.77 1.70 1.45 1.38 1.24 1.34 1.43 1.45 1.47 1.43 1.35 1.45 1.46 1.42 1.38 1.33 1.24
0.89 0.99 1.03 1.11 1.11 1.18 1.25 1.35 1.46 1.60 1.68 1.67 1.72 1.85 1.96 1.97 1.89 1.87 1.96 1.95 1.93 1.81 1.69 1.58 1.61 1.63 1.62 1.58 1.40 1.32 1.21 1.33 1.42 1.52 1.50 1.43 1.31 1.37 1.39 1.31 1.37 1.38 1.38
0.84 0.91 1.09 1.37 1.51 1.57 1.63 1.67 1.64 1.71 1.73 1.73 1.82 1.95 2.07 2.09 2.15 2.26 2.30 2.19 2.07 1.99 1.86 1.70 1.70 1.74 1.71 1.64 1.45 1.41 1.40 1.53 1.60 1.61 1.60 1.54 1.40 1.27 1.34 1.35 1.34 1.36 1.40
0.80 0.81 1.07 1.36 1.61 1.81 1.95 1.97 1.94 1.85 1.92 1.91 2.02 2.14 2.26 2.21 2.21 2.35 2.38 2.37 2.32 2.21 2.05 1.99 1.93 1.90 1.91 1.72 1.54 1.47 1.49 1.58 1.65 1.67 1.64 1.63 1.47 1.23 1.20 1.20 1.22 1.21 1.13
0.71 0.78 1.00 1.28 1.54 1.73 1.92 2.06 2.04 2.06 2.09 2.12 2.24 2.28 2.38 2.52 2.61 2.60 2.47 2.47 2.45 2.34 2.20 2.14 2.07 2.06 2.11 2.00 1.74 1.59 1.52 1.53 1.45 1.47 1.49 1.46 1.42 1.25 1.12 1.13 1.13 1.05 0.96
0.74 0.85 1.09 1.28 1.49 1.68 1.92 2.06 2.01 1.95 2.08 2.27 2.37 2.35 2.43 2.51 2.72 2.89 2.65 2.55 2.44 2.34 2.26 2.24 2.21 2.23 2.28 2.20 1.91 1.65 1.55 1.54 1.48 1.45 1.43 1.36 1.33 1.27 1.20 1.16 1.05 1.02 1.07
0.87 0.96 1.12 1.25 1.45 1.66 1.81 1.97 2.04 2.09 2.13 2.14 2.18 2.30 2.41 2.53 2.60 2.63 2.61 2.54 2.45 2.35 2.35 2.33 2.28 2.25 2.22 2.21 2.04 1.79 1.69 1.70 1.68 1.62 1.47 1.39 1.37 1.39 1.42 1.38 1.33 1.34 1.34
0.89 0.92 1.03 1.12 1.24 1.44 1.61 1.73 1.94 2.19 2.30 2.24 2.20 2.17 2.15 2.27 2.37 2.43 2.44 2.35 2.24 2.17 2.07 2.05 2.01 1.98 2.02 2.06 1.90 1.71 1.71 1.74 1.71 1.59 1.54 1.54 1.52 1.56 1.62 1.62 1.60 1.56 1.55